Location: Hickory_CSC
(35.7330°N, 81.3330°W)
Time: 07:56:12
(UTC-04:00)

Cosmos 1356 Rocket - Visible Passes

Search period start: 01 July 2015 00:00
Search period end: 11 July 2015 00:00
Orbit: 545 x 604 km, 81.2° (Epoch: 30 June)

Date Brightness Start Highest point End Pass type
(mag) Time Alt. Az. Time Alt. Az. Time Alt. Az.
01 Jul 6.2 03:16:33 10° E 03:16:46 10° E 03:17:16 10° E visible
01 Jul 3.7 04:51:21 24° SW 04:53:31 46° WNW 04:57:27 10° N visible
02 Jul 5.9 03:18:50 13° ESE 03:20:05 14° E 03:22:23 10° NE visible
02 Jul 4.2 04:55:05 22° WSW 04:56:56 33° WNW 05:00:37 10° NNW visible
03 Jul 5.4 03:22:32 18° ESE 03:23:24 20° E 03:26:25 10° NE visible
03 Jul 4.7 04:58:47 19° WSW 05:00:24 24° WNW 05:03:41 10° NNW visible
04 Jul 4.9 03:26:13 26° ESE 03:26:43 27° E 03:30:12 10° NE visible
04 Jul 5.1 05:02:27 15° W 05:03:53 18° WNW 05:06:34 10° NNW visible
05 Jul 4.4 03:29:52 37° ESE 03:30:03 38° E 03:33:50 10° NNE visible
05 Jul 5.4 05:06:06 12° W 05:07:24 13° WNW 05:09:08 10° NW visible
06 Jul 3.8 03:33:29 54° E 03:33:29 54° E 03:37:21 10° NNE visible
07 Jul 3.5 03:37:05 72° NE 03:37:05 72° NE 03:40:47 10° N visible
08 Jul 3.6 03:40:39 62° NNW 03:40:39 62° NNW 03:44:09 10° N visible
09 Jul 4.0 03:44:12 44° NW 03:44:12 44° NW 03:47:25 10° N visible
10 Jul 6.2 02:11:30 11° ENE 02:11:30 11° ENE 02:12:02 10° ENE visible
10 Jul 4.5 03:47:44 31° NW 03:47:44 31° NW 03:50:37 10° N visible
